Downstream station:
SHEF ID: ENWK1 CROOKED C NR ENGLEWOOD, KS
STATION TYPE:
Regulating: Stage = 6.50, Flow = 243
PRECIP STAGE RIV-FLOW BAT-LOAD
in ft cfs volt
Ccp-Rev Ccp-Rev Ccp-Rev Ccp-Rev
(US/Central)
01/27 00:00 0.00 2.41 3 12.83
01/27 01:00 0.00 2.41 3 12.83
01/27 02:00 0.00 2.42 3 12.77
01/27 03:00 0.00 2.58 5 12.71
01/27 04:00 0.00 2.63 6 12.71
01/27 05:00 0.00 2.67 7 12.65
01/27 06:00 0.00 2.70 7 12.65
01/27 07:00 0.00 2.73 8 12.60
01/27 08:00 0.00 2.74 8 12.54
01/27 09:00 0.00 2.73 8 14.00
01/27 10:00 0.00 2.78 9 14.82
01/27 11:00 0.00 2.36 3 14.71
01/27 12:00 0.00 2.32 2 14.53
01/27 13:00 0.00 2.31 2 14.47
01/27 14:00 0.00 2.32 2 14.30
01/27 15:00 0.00 2.37 3 14.35
01/27 16:00 0.00 2.43 3 14.06
01/27 17:00 0.00 2.44 4 14.06
01/27 18:00 0.00 2.43 3 13.71
01/27 19:00 0.00 2.43 3 13.18
01/27 20:00 0.00 2.43 3 13.00
01/27 21:00 0.00 2.43 3 12.95
01/27 22:00 0.00 2.43 3 12.89
01/27 23:00 ---- ---- ---- ----